User: anonymous   Login
Location: Unspecified
(0.0000°N, 0.0000°E)
Time: 15:20:01
(UTC+01:00)
Language:

BREEZE-M DEB (TANK) - Orbit

View from above orbital plane
View from above orbital plane
View from above satellite
View from above satellite

Ground track
Ground track

The orbit data is extracted from the following two-line orbital elements,

1 33374U 08044B   14352.02321699  .00001971  00000-0  47694-3 0  8038
2 33374 049.4152 202.6041 5460154 258.3288 334.5893 04.84836823109644
Epoch (UTC): 18 December 2014 00:33:25
Eccentricity: 0.5460154
inclination: 49.4152°
perigee height: 316 km
apogee height: 16419 km
right ascension of ascending node: 202.6041°
argument of perigee: 258.3288°
revolutions per day: 4.84836823
mean anomaly at epoch: 334.5893°
orbit number at epoch: 10964

The dashed part of the orbit path shows where the satellite is in the earth's shadow,  

DLR